START_TIME,STEP,MOV.,M6,t_acc.,M7,t_acc.,M19,t_acc.,H36,t_acc.
1981-08-24 15:00:28.140 ,3,0,0.,12.0,0.,12.0,0.,12.0,0.,12.0
1981-08-24 15:00:40.140 ,3,0,0.,12.0,0.,12.0,0.,12.0,0.,12.0
1981-08-24 15:00:52.140 ,4,1,0.,12.0,0.,12.0,0.,12.0,0.,12.0
1981-08-24 15:01:04.140 ,4,1,0.,12.0,0.,12.0,0.,12.0,0.,12.0
1981-08-24 15:01:16.140 ,4,0,0.,12.0,0.,12.0,0.,12.0,0.,12.0
1981-08-24 15:01:28.140 ,4,0,0.,12.0,0.,12.0,0.,12.0,0.,12.0
1981-08-24 15:01:40.140 ,5,1,0.,12.0,0.,12.0,0.,12.0,0.,12.0
1981-08-24 15:01:52.140 ,5,1,0.,12.0,0.,12.0,0.,12.0,0.,12.0
1981-08-24 15:02:04.140 ,5,0,0.,12.0,0.,12.0,0.,12.0,0.,12.0
1981-08-24 15:02:16.140 ,5,0,0.,12.0,0.,12.0,0.,12.0,0.,12.0
1981-08-24 15:02:28.140 ,6,1,0.,12.0,0.,12.0,0.,12.0,0.,12.0
1981-08-24 15:02:40.140 ,6,1,0.,12.0,0.,12.0,0.,12.0,0.,12.0
1981-08-24 15:02:52.140 ,6,0,0.,12.0,0.,12.0,0.,12.0,0.,12.0
1981-08-24 15:03:04.140 ,6,0,0.,12.0,0.,12.0,0.,12.0,0.,12.0
1981-08-24 15:03:16.140 ,7,1,0.,12.0,0.,12.0,0.,12.0,0.,12.0
1981-08-24 15:03:28.140 ,7,1,0.,12.0,0.,12.0,0.,12.0,0.,12.0
1981-08-24 15:03:40.140 ,7,0,0.,12.0,0.,12.0,0.,12.0,0.,12.0
1981-08-24 15:03:52.140 ,7,0,0.,12.0,0.,12.0,0.,12.0,0.,12.0
1981-08-24 15:04:04.140 ,7,1,0.,12.0,0.,12.0,0.,12.0,0.,12.0
1981-08-24 15:04:16.140 ,7,1,0.,12.0,0.,12.0,0.,12.0,0.,12.0
1981-08-24 15:04:28.140 ,6,1,0.,12.0,0.,12.0,0.,12.0,0.,12.0
1981-08-24 15:04:40.140 ,6,1,0.,12.0,0.,12.0,0.,12.0,0.,12.0
1981-08-24 15:04:52.140 ,5,1,0.,12.0,0.,12.0,0.,12.0,0.,12.0
1981-08-24 15:05:04.140 ,5,1,0.,12.0,0.,12.0,0.,12.0,0.,12.0
1981-08-24 15:05:16.140 ,4,1,0.,12.0,0.,12.0,0.,12.0,0.,12.0
1981-08-24 15:05:28.140 ,4,1,0.,12.0,0.,12.0,0.,12.0,0.,12.0
1981-08-24 15:05:40.140 ,3,1,0.,12.0,0.,12.0,0.,12.0,0.,12.0
1981-08-24 15:05:52.140 ,3,1,0.,12.0,0.,12.0,0.,12.0,0.,12.0
1981-08-24 15:06:04.140 ,2,1,0.,12.0,0.,12.0,0.,12.0,0.,12.0
1981-08-24 15:06:16.140 ,2,1,0.,12.0,0.,12.0,0.,12.0,0.,12.0
1981-08-24 15:06:28.140 ,1,1,0.,12.0,0.,12.0,0.,12.0,0.,12.0
1981-08-24 15:06:40.140 ,1,1,0.,12.0,0.,12.0,0.,12.0,0.,12.0
1981-08-24 15:06:52.140 ,0,1,0.,12.0,0.,12.0,0.,12.0,0.,12.0
1981-08-24 15:07:04.140 ,0,1,0.,12.0,0.,12.0,0.,12.0,0.,12.0
1981-08-24 15:07:16.140 ,0,1,0.,12.0,0.,12.0,0.,12.0,0.,12.0
1981-08-24 15:07:28.140 ,0,1,0.,12.0,0.,12.0,0.,12.0,0.,12.0
1981-08-24 15:07:40.140 ,1,1,0.,12.0,0.,12.0,0.,12.0,0.,12.0
1981-08-24 15:07:52.140 ,1,1,0.,12.0,0.,12.0,0.,12.0,0.,12.0
1981-08-24 15:08:04.140 ,2,1,0.,12.0,0.,12.0,0.,12.0,0.,12.0
1981-08-24 15:08:16.140 ,2,1,0.,12.0,0.,12.0,0.,12.0,0.,12.0
1981-08-24 15:08:28.140 ,3,1,0.,12.0,0.,12.0,0.,12.0,0.,12.0
1981-08-24 15:08:40.140 ,3,1,0.,12.0,0.,12.0,0.,12.0,0.,12.0
1981-08-24 15:08:52.140 ,4,1,0.,12.0,0.,12.0,0.,12.0,0.,12.0
1981-08-24 15:09:04.140 ,4,1,0.,12.0,0.,12.0,0.,12.0,0.,12.0
1981-08-24 15:09:16.140 ,5,1,0.,12.0,0.,12.0,0.,12.0,0.,12.0
1981-08-24 15:09:28.140 ,5,1,0.,12.0,0.,12.0,0.,12.0,0.,12.0
1981-08-24 15:09:40.140 ,6,1,0.,12.0,0.,12.0,0.,12.0,0.,12.0
1981-08-24 15:09:52.140 ,6,1,0.,12.0,0.,12.0,0.,12.0,0.,12.0
1981-08-24 15:10:04.140 ,7,1,0.,12.0,0.,12.0,0.,12.0,0.,12.0
1981-08-24 15:10:16.140 ,7,1,0.,12.0,0.,12.0,0.,12.0,0.,12.0
1981-08-24 15:10:28.140 ,7,1,0.,12.0,0.,12.0,0.,12.0,0.,12.0
1981-08-24 15:10:40.140 ,7,1,0.,12.0,0.,12.0,0.,12.0,0.,12.0
1981-08-24 15:10:52.140 ,7,0,0.,12.0,0.,12.0,0.,12.0,0.,12.0
1981-08-24 15:11:04.140 ,7,0,0.,12.0,0.,12.0,0.,12.0,0.,12.0
1981-08-24 15:11:16.140 ,6,1,0.,12.0,0.,12.0,0.,12.0,0.,12.0
1981-08-24 15:11:28.140 ,6,1,0.,12.0,0.,12.0,0.,12.0,0.,12.0
1981-08-24 15:11:40.140 ,6,0,0.,12.0,0.,12.0,0.,12.0,0.,12.0
1981-08-24 15:11:52.140 ,6,0,0.,12.0,0.,12.0,0.,12.0,0.,12.0
1981-08-24 15:12:04.140 ,5,1,0.,12.0,0.,12.0,0.,12.0,0.,12.0
1981-08-24 15:12:16.140 ,5,1,0.,12.0,0.,12.0,0.,12.0,0.,12.0
1981-08-24 15:12:28.140 ,5,0,0.,12.0,0.,12.0,0.,12.0,0.,12.0
1981-08-24 15:12:40.140 ,5,0,0.,12.0,0.,12.0,0.,12.0,0.,12.0
1981-08-24 15:12:52.140 ,4,1,0.,12.0,0.,12.0,0.,12.0,0.,12.0
1981-08-24 15:13:04.140 ,4,1,0.,12.0,0.,12.0,0.,12.0,0.,12.0
1981-08-24 15:13:16.140 ,4,0,0.,12.0,0.,12.0,0.,12.0,0.,12.0
1981-08-24 15:13:28.140 ,4,0,0.,12.0,0.,12.0,0.,12.0,0.,12.0
1981-08-24 15:13:40.140 ,3,1,0.,12.0,0.,12.0,0.,12.0,0.,12.0
1981-08-24 15:13:52.140 ,3,1,0.,12.0,0.,12.0,0.,12.0,0.,12.0
1981-08-24 15:14:04.140 ,3,0,0.,12.0,0.,12.0,0.,12.0,0.,12.0
1981-08-24 15:14:16.140 ,3,0,0.,12.0,0.,12.0,0.,12.0,0.,12.0
1981-08-24 15:14:28.140 ,2,1,0.,12.0,0.,12.0,0.,12.0,0.,12.0
1981-08-24 15:14:40.140 ,2,1,0.,12.0,0.,12.0,0.,12.0,0.,12.0
1981-08-24 15:14:52.140 ,2,0,0.,12.0,0.,12.0,0.,12.0,0.,12.0
1981-08-24 15:15:04.140 ,2,0,0.,12.0,0.,12.0,0.,12.0,0.,12.0
1981-08-24 15:15:16.140 ,1,1,0.,12.0,0.,12.0,0.,12.0,0.,12.0
1981-08-24 15:15:28.140 ,1,1,0.,12.0,0.,12.0,0.,12.0,0.,12.0
1981-08-24 15:15:40.140 ,1,0,0.,12.0,0.,12.0,0.,12.0,0.,12.0
1981-08-24 15:15:52.140 ,1,0,0.,12.0,0.,12.0,0.,12.0,0.,12.0
1981-08-24 15:16:04.140 ,0,1,0.,12.0,0.,12.0,0.,12.0,0.,12.0
1981-08-24 15:16:16.140 ,0,1,0.,12.0,0.,12.0,0.,12.0,0.,12.0
1981-08-24 15:16:28.140 ,0,0,0.,12.0,0.,12.0,0.,12.0,0.,12.0
1981-08-24 15:16:40.140 ,0,0,0.,12.0,0.,12.0,0.,12.0,0.,12.0
1981-08-24 15:16:52.140 ,0,1,0.,12.0,0.,12.0,0.,12.0,0.,12.0
1981-08-24 15:17:04.140 ,0,1,0.,12.0,0.,12.0,0.,12.0,0.,12.0
1981-08-24 15:17:16.140 ,0,0,0.,12.0,0.,12.0,0.,12.0,0.,12.0
1981-08-24 15:17:28.140 ,0,0,0.,12.0,0.,12.0,0.,12.0,0.,12.0
1981-08-24 15:17:40.140 ,1,1,0.,12.0,0.,12.0,0.,12.0,0.,12.0
1981-08-24 15:17:52.140 ,1,1,0.,12.0,0.,12.0,0.,12.0,0.,12.0
1981-08-24 15:18:04.140 ,1,0,0.,12.0,0.,12.0,0.,12.0,0.,12.0
1981-08-24 15:18:16.140 ,1,0,0.,12.0,0.,12.0,0.,12.0,0.,12.0
1981-08-24 15:18:28.140 ,2,1,0.,12.0,0.,12.0,0.,12.0,0.,12.0
1981-08-24 15:18:40.140 ,2,1,0.,12.0,0.,12.0,0.,12.0,0.,12.0
1981-08-24 15:18:52.140 ,2,0,0.,12.0,0.,12.0,0.,12.0,0.,12.0
1981-08-24 15:19:04.140 ,2,0,0.,12.0,0.,12.0,0.,12.0,0.,12.0
1981-08-24 15:19:16.140 ,3,1,0.,12.0,0.,12.0,0.,12.0,0.,12.0
1981-08-24 15:19:28.140 ,3,1,0.,12.0,0.,12.0,0.,12.0,0.,12.0
1981-08-24 15:19:40.140 ,3,0,0.,12.0,0.,12.0,0.,12.0,0.,12.0
1981-08-24 15:19:52.140 ,3,0,0.,12.0,0.,12.0,0.,12.0,0.,12.0
1981-08-24 15:20:04.140 ,4,1,0.,12.0,0.,12.0,0.,12.0,0.,12.0
1981-08-24 15:20:16.140 ,4,1,0.,12.0,0.,12.0,0.,12.0,0.,12.0
1981-08-24 15:20:28.140 ,4,0,0.,12.0,0.,12.0,0.,12.0,0.,12.0
1981-08-24 15:20:40.140 ,4,0,0.,12.0,0.,12.0,0.,12.0,0.,12.0
1981-08-24 15:20:52.140 ,5,1,0.,12.0,0.,12.0,0.,12.0,0.,12.0
1981-08-24 15:21:04.140 ,5,1,0.,12.0,0.,12.0,0.,12.0,0.,12.0
1981-08-24 15:21:16.140 ,5,0,0.,12.0,0.,12.0,0.,12.0,0.,12.0
1981-08-24 15:21:28.140 ,5,0,0.,12.0,0.,12.0,0.,12.0,0.,12.0
1981-08-24 15:21:40.140 ,6,1,0.,12.0,0.,12.0,0.,12.0,0.,12.0
1981-08-24 15:21:52.140 ,6,1,0.,12.0,0.,12.0,0.,12.0,0.,12.0
1981-08-24 15:22:04.140 ,6,0,0.,12.0,0.,12.0,0.,12.0,0.,12.0
1981-08-24 15:22:16.140 ,6,0,0.,12.0,0.,12.0,0.,12.0,0.,12.0
1981-08-24 15:22:28.140 ,7,1,0.,12.0,0.,12.0,0.,12.0,0.,12.0
1981-08-24 15:22:40.140 ,7,1,0.,12.0,0.,12.0,0.,12.0,0.,12.0
1981-08-24 15:22:52.140 ,7,0,0.,12.0,0.,12.0,0.,12.0,0.,12.0
1981-08-24 15:23:04.140 ,7,0,0.,12.0,0.,12.0,0.,12.0,0.,12.0
1981-08-24 15:23:16.140 ,7,1,0.,12.0,0.,12.0,0.,12.0,0.,12.0
1981-08-24 15:23:28.140 ,7,1,0.,12.0,0.,12.0,0.,12.0,0.,12.0
1981-08-24 15:23:40.140 ,6,1,0.,12.0,0.,12.0,0.,12.0,0.,12.0
1981-08-24 15:23:52.140 ,6,1,0.,12.0,0.,12.0,0.,12.0,0.,12.0
1981-08-24 15:24:04.140 ,5,1,0.,12.0,0.,12.0,0.,12.0,0.,12.0
1981-08-24 15:24:16.140 ,5,1,0.,12.0,0.,12.0,0.,12.0,0.,12.0
1981-08-24 15:24:28.140 ,4,1,0.,12.0,0.,12.0,0.,12.0,0.,12.0
1981-08-24 15:24:40.140 ,4,1,0.,12.0,0.,12.0,0.,12.0,0.,12.0
1981-08-24 15:24:52.140 ,3,1,0.,12.0,0.,12.0,0.,12.0,0.,12.0
1981-08-24 15:25:04.140 ,3,1,0.,12.0,0.,12.0,0.,12.0,0.,12.0
1981-08-24 15:25:16.140 ,2,1,0.,12.0,0.,12.0,0.,12.0,0.,12.0
1981-08-24 15:25:28.140 ,2,1,0.,12.0,0.,12.0,0.,12.0,0.,12.0
1981-08-24 15:25:40.140 ,1,1,0.,12.0,0.,12.0,0.,12.0,0.,12.0
1981-08-24 15:25:52.140 ,1,1,0.,12.0,0.,12.0,0.,12.0,0.,12.0
1981-08-24 15:26:04.140 ,0,1,0.,12.0,0.,12.0,0.,12.0,0.,12.0
1981-08-24 15:26:16.140 ,0,1,0.,12.0,0.,12.0,0.,12.0,0.,12.0
1981-08-24 15:26:28.140 ,0,1,0.,12.0,0.,12.0,0.,12.0,0.,12.0
1981-08-24 15:26:40.140 ,0,1,0.,12.0,0.,12.0,0.,12.0,0.,12.0
1981-08-24 15:26:52.140 ,1,1,0.,12.0,0.,12.0,0.,12.0,0.,12.0
1981-08-24 15:27:04.140 ,1,1,0.,12.0,0.,12.0,0.,12.0,0.,12.0
1981-08-24 15:27:16.140 ,2,1,0.,12.0,0.,12.0,0.,12.0,0.,12.0
1981-08-24 15:27:28.140 ,2,1,0.,12.0,0.,12.0,0.,12.0,0.,12.0
1981-08-24 15:27:40.140 ,3,1,0.,12.0,0.,12.0,0.,12.0,0.,12.0
1981-08-24 15:27:52.140 ,3,1,0.,12.0,0.,12.0,0.,12.0,0.,12.0
1981-08-24 15:28:04.140 ,4,1,0.,12.0,0.,12.0,0.,12.0,0.,12.0
1981-08-24 15:28:16.140 ,4,1,0.,12.0,0.,12.0,0.,12.0,0.,12.0
1981-08-24 15:28:28.140 ,5,1,0.,12.0,0.,12.0,0.,12.0,0.,12.0
1981-08-24 15:28:40.140 ,5,1,0.,12.0,0.,12.0,0.,12.0,0.,12.0
1981-08-24 15:28:52.140 ,6,1,0.,12.0,0.,12.0,0.,12.0,0.,12.0
1981-08-24 15:29:04.140 ,6,1,0.,12.0,0.,12.0,0.,12.0,0.,12.0
1981-08-24 15:29:16.140 ,7,1,0.,12.0,0.,12.0,0.,12.0,0.,12.0
1981-08-24 15:29:28.140 ,7,1,0.,12.0,0.,12.0,0.,12.0,0.,12.0
1981-08-24 15:29:40.140 ,7,1,0.,12.0,0.,12.0,0.,12.0,0.,12.0
1981-08-24 15:29:52.140 ,7,1,0.,12.0,0.,12.0,0.,12.0,0.,12.0
1981-08-24 15:30:04.140 ,7,0,0.,12.0,0.,12.0,0.,12.0,0.,12.0
1981-08-24 15:30:16.140 ,7,0,0.,12.0,0.,12.0,0.,12.0,0.,12.0
1981-08-24 15:30:28.140 ,6,1,0.,12.0,0.,12.0,0.,12.0,0.,12.0
1981-08-24 15:30:40.140 ,6,1,0.,12.0,0.,12.0,0.,12.0,0.,12.0
1981-08-24 15:30:52.140 ,6,0,0.,12.0,0.,12.0,0.,12.0,0.,12.0
1981-08-24 15:31:04.140 ,6,0,0.,12.0,0.,12.0,0.,12.0,0.,12.0
1981-08-24 15:31:16.140 ,5,1,0.,12.0,0.,12.0,0.,12.0,0.,12.0
1981-08-24 15:31:28.140 ,5,1,0.,12.0,0.,12.0,0.,12.0,0.,12.0
1981-08-24 15:31:40.140 ,5,0,0.,12.0,0.,12.0,0.,12.0,0.,12.0
1981-08-24 15:31:52.140 ,5,0,0.,12.0,0.,12.0,0.,12.0,0.,12.0
1981-08-24 15:32:04.140 ,4,1,0.,12.0,0.,12.0,0.,12.0,0.,12.0
1981-08-24 15:32:16.140 ,4,1,0.,12.0,0.,12.0,0.,12.0,0.,12.0
1981-08-24 15:32:28.140 ,4,0,0.,12.0,0.,12.0,0.,12.0,0.,12.0
1981-08-24 15:32:40.140 ,4,0,0.,12.0,0.,12.0,0.,12.0,0.,12.0
1981-08-24 15:32:52.140 ,3,1,0.,12.0,0.,12.0,0.,12.0,0.,12.0
1981-08-24 15:33:04.140 ,3,1,0.,12.0,0.,12.0,0.,12.0,0.,12.0
1981-08-24 15:33:16.140 ,3,0,0.,12.0,0.,12.0,0.,12.0,0.,12.0
1981-08-24 15:33:28.140 ,3,0,0.,12.0,0.,12.0,0.,12.0,0.,12.0
1981-08-24 15:33:40.140 ,2,1,0.,12.0,0.,12.0,0.,12.0,0.,12.0
1981-08-24 15:33:52.140 ,2,1,0.,12.0,0.,12.0,0.,12.0,0.,12.0
1981-08-24 15:34:04.140 ,2,0,0.,12.0,0.,12.0,0.,12.0,0.,12.0
1981-08-24 15:34:16.140 ,2,0,0.,12.0,0.,12.0,0.,12.0,0.,12.0
1981-08-24 15:34:28.140 ,1,1,0.,12.0,0.,12.0,0.,12.0,0.,12.0
1981-08-24 15:34:40.140 ,1,1,0.,12.0,0.,12.0,0.,12.0,0.,12.0
1981-08-24 15:34:52.140 ,1,0,0.,12.0,0.,12.0,0.,12.0,0.,12.0
1981-08-24 15:35:04.140 ,1,0,0.,12.0,0.,12.0,0.,12.0,0.,12.0
1981-08-24 15:35:16.140 ,0,1,0.,12.0,0.,12.0,0.,12.0,0.,12.0
1981-08-24 15:35:28.140 ,0,1,0.,12.0,0.,12.0,0.,12.0,0.,12.0
1981-08-24 15:35:40.140 ,0,0,0.,12.0,0.,12.0,0.,12.0,0.,12.0
1981-08-24 15:35:52.140 ,0,0,0.,12.0,0.,12.0,0.,12.0,0.,12.0
1981-08-24 15:36:04.140 ,0,1,0.,12.0,0.,12.0,0.,12.0,0.,12.0
1981-08-24 15:36:16.140 ,0,1,0.,12.0,0.,12.0,0.,12.0,0.,12.0
1981-08-24 15:36:28.140 ,0,0,0.,12.0,0.,12.0,0.,12.0,0.,12.0
1981-08-24 15:36:40.140 ,0,0,0.,12.0,0.,12.0,0.,12.0,0.,12.0
1981-08-24 15:36:52.140 ,1,1,0.,12.0,0.,12.0,0.,12.0,0.,12.0
1981-08-24 15:37:04.140 ,1,1,0.,12.0,0.,12.0,0.,12.0,0.,12.0
1981-08-24 15:37:16.140 ,1,0,0.,12.0,0.,12.0,0.,12.0,0.,12.0
1981-08-24 15:37:28.140 ,1,0,0.,12.0,0.,12.0,0.,12.0,0.,12.0
1981-08-24 15:37:40.140 ,2,1,0.,12.0,0.,12.0,0.,12.0,0.,12.0
1981-08-24 15:37:52.140 ,2,1,0.,12.0,0.,12.0,0.,12.0,0.,12.0
1981-08-24 15:38:04.140 ,2,0,0.,12.0,0.,12.0,0.,12.0,0.,12.0
1981-08-24 15:38:16.140 ,2,0,0.,12.0,0.,12.0,0.,12.0,0.,12.0
1981-08-24 15:38:28.140 ,3,1,0.,12.0,0.,12.0,0.,12.0,0.,12.0
1981-08-24 15:38:40.140 ,3,1,0.,12.0,0.,12.0,0.,12.0,0.,12.0
1981-08-24 15:38:52.140 ,3,0,0.,12.0,0.,12.0,0.,12.0,0.,12.0
1981-08-24 15:39:04.140 ,3,0,0.,12.0,0.,12.0,0.,12.0,0.,12.0
1981-08-24 15:39:16.140 ,4,1,0.,12.0,0.,12.0,0.,12.0,0.,12.0
1981-08-24 15:39:28.140 ,4,1,0.,12.0,0.,12.0,0.,12.0,0.,12.0
1981-08-24 15:39:40.140 ,4,0,0.,12.0,0.,12.0,0.,12.0,0.,12.0
1981-08-24 15:39:52.140 ,4,0,0.,12.0,0.,12.0,0.,12.0,0.,12.0
1981-08-24 15:40:04.140 ,5,1,0.,12.0,0.,12.0,0.,12.0,0.,12.0
1981-08-24 15:40:16.140 ,5,1,0.,12.0,0.,12.0,0.,12.0,0.,12.0
1981-08-24 15:40:28.140 ,5,0,0.,12.0,0.,12.0,0.,12.0,0.,12.0
1981-08-24 15:40:40.140 ,5,0,0.,12.0,0.,12.0,0.,12.0,0.,12.0
1981-08-24 15:40:52.140 ,6,1,0.,12.0,0.,12.0,0.,12.0,0.,12.0
1981-08-24 15:41:04.140 ,6,1,0.,12.0,0.,12.0,0.,12.0,0.,12.0
1981-08-24 15:41:16.140 ,6,0,0.,12.0,0.,12.0,0.,12.0,0.,12.0
1981-08-24 15:41:28.140 ,6,0,0.,12.0,0.,12.0,0.,12.0,0.,12.0
1981-08-24 15:41:40.140 ,7,1,0.,12.0,0.,12.0,0.,12.0,0.,12.0
1981-08-24 15:41:52.140 ,7,1,0.,12.0,0.,12.0,0.,12.0,0.,12.0
1981-08-24 15:42:04.140 ,7,0,0.,12.0,0.,12.0,0.,12.0,0.,12.0
1981-08-24 15:42:16.140 ,7,0,0.,12.0,0.,12.0,0.,12.0,0.,12.0
1981-08-24 15:42:28.140 ,7,1,0.,12.0,0.,12.0,0.,12.0,0.,12.0
1981-08-24 15:42:40.140 ,7,1,0.,12.0,0.,12.0,0.,12.0,0.,12.0
1981-08-24 15:42:52.140 ,6,1,0.,12.0,0.,12.0,0.,12.0,0.,12.0
1981-08-24 15:43:04.140 ,6,1,0.,12.0,0.,12.0,0.,12.0,0.,12.0
1981-08-24 15:43:16.140 ,5,1,0.,12.0,0.,12.0,0.,12.0,0.,12.0
1981-08-24 15:43:28.140 ,5,1,0.,12.0,0.,12.0,0.,12.0,0.,12.0
1981-08-24 15:43:40.140 ,4,1,0.,12.0,0.,12.0,0.,12.0,0.,12.0
1981-08-24 15:43:52.140 ,4,1,0.,12.0,0.,12.0,0.,12.0,0.,12.0
1981-08-24 15:44:04.140 ,3,1,0.,12.0,0.,12.0,0.,12.0,0.,12.0
1981-08-24 15:44:16.140 ,3,1,0.,12.0,0.,12.0,0.,12.0,0.,12.0
1981-08-24 15:44:28.140 ,2,1,0.,12.0,0.,12.0,0.,12.0,0.,12.0
1981-08-24 15:44:40.140 ,2,1,0.,12.0,0.,12.0,0.,12.0,0.,12.0
1981-08-24 15:44:52.140 ,1,1,0.,12.0,0.,12.0,0.,12.0,0.,12.0
1981-08-24 15:45:04.140 ,1,1,0.,12.0,0.,12.0,0.,12.0,0.,12.0
1981-08-24 15:45:16.140 ,0,1,0.,12.0,0.,12.0,0.,12.0,0.,12.0
1981-08-24 15:45:28.140 ,0,1,0.,12.0,0.,12.0,0.,12.0,0.,12.0
1981-08-24 15:45:40.140 ,0,1,0.,12.0,0.,12.0,0.,12.0,0.,12.0
1981-08-24 15:45:52.140 ,0,1,0.,12.0,0.,12.0,0.,12.0,0.,12.0
1981-08-24 15:46:04.140 ,1,1,0.,12.0,0.,12.0,0.,12.0,0.,12.0
1981-08-24 15:46:16.140 ,1,1,0.,12.0,0.,12.0,0.,12.0,0.,12.0
1981-08-24 15:46:28.140 ,2,1,0.,12.0,0.,12.0,0.,12.0,0.,12.0
1981-08-24 15:46:40.140 ,2,1,0.,12.0,0.,12.0,0.,12.0,0.,12.0
1981-08-24 15:46:52.140 ,3,1,0.,12.0,0.,12.0,0.,12.0,0.,12.0
1981-08-24 15:47:04.140 ,3,1,0.,12.0,0.,12.0,0.,12.0,0.,12.0
1981-08-24 15:47:16.140 ,4,1,0.,12.0,0.,12.0,0.,12.0,0.,12.0
1981-08-24 15:47:28.140 ,4,1,0.,12.0,0.,12.0,0.,12.0,0.,12.0
1981-08-24 15:47:40.140 ,5,1,0.,12.0,0.,12.0,0.,12.0,0.,12.0
1981-08-24 15:47:52.140 ,5,1,0.,12.0,0.,12.0,0.,12.0,0.,12.0
1981-08-24 15:48:04.140 ,6,1,0.,12.0,0.,12.0,0.,12.0,0.,12.0
1981-08-24 15:48:16.140 ,6,1,0.,12.0,0.,12.0,0.,12.0,0.,12.0
1981-08-24 15:48:28.140 ,7,1,0.,12.0,0.,12.0,0.,12.0,0.,12.0
1981-08-24 15:48:40.140 ,7,1,0.,12.0,0.,12.0,0.,12.0,0.,12.0
1981-08-24 15:48:52.140 ,7,1,0.,12.0,0.,12.0,0.,12.0,0.,12.0
1981-08-24 15:49:04.140 ,7,1,0.,12.0,0.,12.0,0.,12.0,0.,12.0
1981-08-24 15:49:16.140 ,7,0,0.,12.0,0.,12.0,0.,12.0,0.,12.0
1981-08-24 15:49:28.140 ,7,0,0.,12.0,0.,12.0,0.,12.0,0.,12.0
1981-08-24 15:49:40.140 ,6,1,0.,12.0,0.,12.0,0.,12.0,0.,12.0
1981-08-24 15:49:52.140 ,6,1,0.,12.0,0.,12.0,0.,12.0,0.,12.0
1981-08-24 15:50:04.140 ,6,0,0.,12.0,0.,12.0,0.,12.0,0.,12.0
1981-08-24 15:50:16.140 ,6,0,0.,12.0,0.,12.0,0.,12.0,0.,12.0
1981-08-24 15:50:28.140 ,5,1,0.,12.0,0.,12.0,0.,12.0,0.,12.0
1981-08-24 15:50:40.140 ,5,1,0.,12.0,0.,12.0,0.,12.0,0.,12.0
1981-08-24 15:50:52.140 ,5,0,0.,12.0,0.,12.0,0.,12.0,0.,12.0
1981-08-24 15:51:04.140 ,5,0,0.,12.0,0.,12.0,0.,12.0,0.,12.0
1981-08-24 15:51:16.140 ,4,1,0.,12.0,0.,12.0,0.,12.0,0.,12.0
1981-08-24 15:51:28.140 ,4,1,0.,12.0,0.,12.0,0.,12.0,0.,12.0
1981-08-24 15:51:40.140 ,4,0,0.,12.0,0.,12.0,0.,12.0,0.,12.0
1981-08-24 15:51:52.140 ,4,0,0.,12.0,0.,12.0,0.,12.0,0.,12.0
1981-08-24 15:52:04.140 ,3,1,0.,12.0,0.,12.0,0.,12.0,0.,12.0
1981-08-24 15:52:16.140 ,3,1,0.,12.0,0.,12.0,0.,12.0,0.,12.0
1981-08-24 15:52:28.140 ,3,0,0.,12.0,0.,12.0,0.,12.0,0.,12.0
1981-08-24 15:52:40.140 ,3,0,0.,12.0,0.,12.0,0.,12.0,0.,12.0
1981-08-24 15:52:52.140 ,2,1,0.,12.0,0.,12.0,0.,12.0,0.,12.0
1981-08-24 15:53:04.140 ,2,1,0.,12.0,0.,12.0,0.,12.0,0.,12.0
1981-08-24 15:53:16.140 ,2,0,0.,12.0,0.,12.0,0.,12.0,0.,12.0
1981-08-24 15:53:28.140 ,2,0,0.,12.0,0.,12.0,0.,12.0,0.,12.0
1981-08-24 15:53:40.140 ,1,1,0.,12.0,0.,12.0,0.,12.0,0.,12.0
1981-08-24 15:53:52.140 ,1,1,0.,12.0,0.,12.0,0.,12.0,0.,12.0
1981-08-24 15:54:04.140 ,1,0,0.,12.0,0.,12.0,0.,12.0,0.,12.0
1981-08-24 15:54:16.140 ,1,0,0.,12.0,0.,12.0,0.,12.0,0.,12.0
1981-08-24 15:54:28.140 ,0,1,0.,12.0,0.,12.0,0.,12.0,0.,12.0
1981-08-24 15:54:40.140 ,0,1,0.,12.0,0.,12.0,0.,12.0,0.,12.0
1981-08-24 15:54:52.140 ,0,0,0.,12.0,0.,12.0,0.,12.0,0.,12.0
1981-08-24 15:55:04.140 ,0,0,0.,12.0,0.,12.0,0.,12.0,0.,12.0
1981-08-24 15:55:16.140 ,0,1,0.,12.0,0.,12.0,0.,12.0,0.,12.0
1981-08-24 15:55:28.140 ,0,1,0.,12.0,0.,12.0,0.,12.0,0.,12.0
1981-08-24 15:55:40.140 ,0,0,0.,12.0,0.,12.0,0.,12.0,0.,12.0
1981-08-24 15:55:52.140 ,0,0,0.,12.0,0.,12.0,0.,12.0,0.,12.0
1981-08-24 15:56:04.140 ,1,1,0.,12.0,0.,12.0,0.,12.0,0.,12.0
1981-08-24 15:56:16.140 ,1,1,0.,12.0,0.,12.0,0.,12.0,0.,12.0
1981-08-24 15:56:28.140 ,1,0,0.,12.0,0.,12.0,0.,12.0,0.,12.0
1981-08-24 15:56:40.140 ,1,0,0.,12.0,0.,12.0,0.,12.0,0.,12.0
1981-08-24 15:56:52.140 ,2,1,0.,12.0,0.,12.0,0.,12.0,0.,12.0
1981-08-24 15:57:04.140 ,2,1,0.,12.0,0.,12.0,0.,12.0,0.,12.0
1981-08-24 15:57:16.140 ,2,0,0.,12.0,0.,12.0,0.,12.0,0.,12.0
1981-08-24 15:57:28.140 ,2,0,0.,12.0,0.,12.0,0.,12.0,0.,12.0
1981-08-24 15:57:40.140 ,3,1,0.,12.0,0.,12.0,0.,12.0,0.,12.0
1981-08-24 15:57:52.140 ,3,1,0.,12.0,0.,12.0,0.,12.0,0.,12.0
1981-08-24 15:58:04.140 ,3,0,0.,12.0,0.,12.0,0.,12.0,0.,12.0
1981-08-24 15:58:16.140 ,3,0,0.,12.0,0.,12.0,0.,12.0,0.,12.0
1981-08-24 15:58:28.140 ,4,1,0.,12.0,0.,12.0,0.,12.0,0.,12.0
1981-08-24 15:58:40.140 ,4,1,0.,12.0,0.,12.0,0.,12.0,0.,12.0
1981-08-24 15:58:52.140 ,4,0,0.,12.0,0.,12.0,0.,12.0,0.,12.0
1981-08-24 15:59:04.140 ,4,0,0.,12.0,0.,12.0,0.,12.0,0.,12.0
1981-08-24 15:59:16.140 ,5,1,0.,12.0,0.,12.0,0.,12.0,0.,12.0
1981-08-24 15:59:28.140 ,5,1,0.,12.0,0.,12.0,0.,12.0,0.,12.0
1981-08-24 15:59:40.140 ,5,0,0.,12.0,0.,12.0,0.,12.0,0.,12.0
1981-08-24 15:59:52.140 ,5,0,0.,12.0,0.,12.0,0.,12.0,0.,12.0
1981-08-24 16:00:04.140 ,6,1,0.,12.0,0.,12.0,0.,12.0,0.,12.0
1981-08-24 16:00:16.140 ,6,1,0.,12.0,0.,12.0,0.,12.0,0.,12.0
1981-08-24 16:00:28.140 ,6,0,0.,12.0,0.,12.0,0.,12.0,0.,12.0
1981-08-24 16:00:40.140 ,6,0,0.,12.0,0.,12.0,0.,12.0,0.,12.0
1981-08-24 16:00:52.140 ,7,1,0.,12.0,0.,12.0,0.,12.0,0.,12.0
1981-08-24 16:01:04.140 ,7,1,0.,12.0,0.,12.0,0.,12.0,0.,12.0
1981-08-24 16:01:16.140 ,7,0,0.,12.0,0.,12.0,0.,12.0,0.,12.0
1981-08-24 16:01:28.140 ,7,0,0.,12.0,0.,12.0,0.,12.0,0.,12.0
1981-08-24 16:01:40.140 ,7,1,0.,12.0,0.,12.0,0.,12.0,0.,12.0
1981-08-24 16:01:52.140 ,7,1,0.,12.0,0.,12.0,0.,12.0,0.,12.0
1981-08-24 16:02:04.140 ,6,1,0.,12.0,0.,12.0,0.,12.0,0.,12.0
1981-08-24 16:02:16.140 ,6,1,0.,12.0,0.,12.0,0.,12.0,0.,12.0
1981-08-24 16:02:28.140 ,5,1,0.,12.0,0.,12.0,0.,12.0,0.,12.0
1981-08-24 16:02:40.140 ,5,1,0.,12.0,0.,12.0,0.,12.0,0.,12.0
1981-08-24 16:02:52.140 ,4,1,0.,12.0,0.,12.0,0.,12.0,0.,12.0
1981-08-24 16:03:04.140 ,4,1,0.,12.0,0.,12.0,0.,12.0,0.,12.0
1981-08-24 16:03:16.140 ,3,1,0.,12.0,0.,12.0,0.,12.0,0.,12.0
1981-08-24 16:03:28.140 ,3,1,0.,12.0,0.,12.0,0.,12.0,0.,12.0
1981-08-24 16:03:40.140 ,2,1,0.,12.0,0.,12.0,0.,12.0,0.,12.0
1981-08-24 16:03:52.140 ,2,1,0.,12.0,0.,12.0,0.,12.0,0.,12.0
1981-08-24 16:04:04.140 ,1,1,0.,12.0,0.,12.0,0.,12.0,0.,12.0
1981-08-24 16:04:16.140 ,1,1,0.,12.0,0.,12.0,0.,12.0,0.,12.0
1981-08-24 16:04:28.140 ,0,1,0.,12.0,0.,12.0,0.,12.0,0.,12.0
1981-08-24 16:04:40.140 ,0,1,0.,12.0,0.,12.0,0.,12.0,0.,12.0
1981-08-24 16:04:52.140 ,0,1,0.,12.0,0.,12.0,0.,12.0,0.,12.0
1981-08-24 16:05:04.140 ,0,1,0.,12.0,0.,12.0,0.,12.0,0.,12.0
1981-08-24 16:05:16.140 ,1,1,0.,12.0,0.,12.0,0.,12.0,0.,12.0
1981-08-24 16:05:28.140 ,1,1,0.,12.0,0.,12.0,0.,12.0,0.,12.0
1981-08-24 16:05:40.140 ,2,1,0.,12.0,0.,12.0,0.,12.0,0.,12.0
1981-08-24 16:05:52.140 ,2,1,0.,12.0,0.,12.0,0.,12.0,0.,12.0
1981-08-24 16:06:04.140 ,3,1,0.,12.0,0.,12.0,0.,12.0,0.,12.0
1981-08-24 16:06:16.140 ,3,1,0.,12.0,0.,12.0,0.,12.0,0.,12.0
1981-08-24 16:06:28.140 ,4,1,0.,12.0,0.,12.0,0.,12.0,0.,12.0
1981-08-24 16:06:40.140 ,4,1,0.,12.0,0.,12.0,0.,12.0,0.,12.0
1981-08-24 16:06:52.140 ,5,1,0.,12.0,0.,12.0,0.,12.0,0.,12.0
1981-08-24 16:07:04.140 ,5,1,0.,12.0,0.,12.0,0.,12.0,0.,12.0
1981-08-24 16:07:16.140 ,6,1,0.,12.0,0.,12.0,0.,12.0,0.,12.0
1981-08-24 16:07:28.140 ,6,1,0.,12.0,0.,12.0,0.,12.0,0.,12.0
1981-08-24 16:07:40.140 ,7,1,0.,12.0,0.,12.0,0.,12.0,0.,12.0
1981-08-24 16:07:52.140 ,7,1,0.,12.0,0.,12.0,0.,12.0,0.,12.0
1981-08-24 16:08:04.140 ,7,1,0.,12.0,0.,12.0,0.,12.0,0.,12.0
1981-08-24 16:08:16.140 ,7,1,0.,12.0,0.,12.0,0.,12.0,0.,12.0
1981-08-24 16:08:28.140 ,7,0,0.,12.0,0.,12.0,0.,12.0,0.,12.0
1981-08-24 16:08:40.140 ,7,0,0.,12.0,0.,12.0,0.,12.0,0.,12.0
1981-08-24 16:08:52.140 ,6,1,0.,12.0,0.,12.0,0.,12.0,0.,12.0
1981-08-24 16:09:04.140 ,6,1,0.,12.0,0.,12.0,0.,12.0,0.,12.0
1981-08-24 16:09:16.140 ,6,0,0.,12.0,0.,12.0,0.,12.0,0.,12.0
1981-08-24 16:09:28.140 ,6,0,0.,12.0,0.,12.0,0.,12.0,0.,12.0
1981-08-24 16:09:40.140 ,5,1,0.,12.0,0.,12.0,0.,12.0,0.,12.0
1981-08-24 16:09:52.140 ,5,1,0.,12.0,0.,12.0,0.,12.0,0.,12.0
1981-08-24 16:10:04.140 ,5,0,0.,12.0,0.,12.0,0.,12.0,0.,12.0
1981-08-24 16:10:16.140 ,5,0,0.,12.0,0.,12.0,0.,12.0,0.,12.0
1981-08-24 16:10:28.140 ,4,1,0.,12.0,0.,12.0,0.,12.0,0.,12.0
1981-08-24 16:10:40.140 ,4,1,0.,12.0,0.,12.0,0.,12.0,0.,12.0
1981-08-24 16:10:52.140 ,4,0,0.,12.0,0.,12.0,0.,12.0,0.,12.0
1981-08-24 16:11:04.140 ,4,0,0.,12.0,0.,12.0,0.,12.0,0.,12.0
1981-08-24 16:11:16.140 ,3,1,0.,12.0,0.,12.0,0.,12.0,0.,12.0
1981-08-24 16:11:28.140 ,3,1,0.,12.0,0.,12.0,0.,12.0,0.,12.0
1981-08-24 16:11:40.140 ,3,0,0.,12.0,0.,12.0,0.,12.0,0.,12.0
1981-08-24 16:11:52.140 ,3,0,0.,12.0,0.,12.0,0.,12.0,0.,12.0
1981-08-24 16:12:04.140 ,2,1,0.,12.0,0.,12.0,0.,12.0,0.,12.0
1981-08-24 16:12:16.140 ,2,1,0.,12.0,0.,12.0,0.,12.0,0.,12.0
1981-08-24 16:12:28.140 ,2,0,0.,12.0,0.,12.0,0.,12.0,0.,12.0
1981-08-24 16:12:40.140 ,2,0,0.,12.0,0.,12.0,0.,12.0,0.,12.0
1981-08-24 16:12:52.140 ,1,1,0.,12.0,0.,12.0,0.,12.0,0.,12.0
1981-08-24 16:13:04.140 ,1,1,0.,12.0,0.,12.0,0.,12.0,0.,12.0
1981-08-24 16:13:16.140 ,1,0,0.,12.0,0.,12.0,0.,12.0,0.,12.0
1981-08-24 16:13:28.140 ,1,0,0.,12.0,0.,12.0,0.,12.0,0.,12.0
1981-08-24 16:13:40.140 ,0,1,0.,12.0,0.,12.0,0.,12.0,0.,12.0
1981-08-24 16:13:52.140 ,0,1,0.,12.0,0.,12.0,0.,12.0,0.,12.0
1981-08-24 16:14:04.140 ,0,0,0.,12.0,0.,12.0,0.,12.0,0.,12.0
1981-08-24 16:14:16.140 ,0,0,0.,12.0,0.,12.0,0.,12.0,0.,12.0
1981-08-24 16:14:28.140 ,0,1,0.,12.0,0.,12.0,0.,12.0,0.,12.0
1981-08-24 16:14:40.140 ,0,1,0.,12.0,0.,12.0,0.,12.0,0.,12.0
1981-08-24 16:14:52.140 ,0,0,0.,12.0,0.,12.0,0.,12.0,0.,12.0
1981-08-24 16:15:04.140 ,0,0,0.,12.0,0.,12.0,0.,12.0,0.,12.0
1981-08-24 16:15:16.140 ,1,1,0.,12.0,0.,12.0,0.,12.0,0.,12.0
1981-08-24 16:15:28.140 ,1,1,0.,12.0,0.,12.0,0.,12.0,0.,12.0
1981-08-24 16:15:40.140 ,1,0,0.,12.0,0.,12.0,0.,12.0,0.,12.0
1981-08-24 16:15:52.140 ,1,0,0.,12.0,0.,12.0,0.,12.0,0.,12.0
1981-08-24 16:16:04.140 ,2,1,0.,12.0,0.,12.0,0.,12.0,0.,12.0
1981-08-24 16:16:16.140 ,2,1,0.,12.0,0.,12.0,0.,12.0,0.,12.0
1981-08-24 16:16:28.140 ,2,0,0.,12.0,0.,12.0,0.,12.0,0.,12.0
1981-08-24 16:16:40.140 ,2,0,0.,12.0,0.,12.0,0.,12.0,0.,12.0
1981-08-24 16:16:52.140 ,3,1,0.,12.0,0.,12.0,0.,12.0,0.,12.0
1981-08-24 16:17:04.140 ,3,1,0.,12.0,0.,12.0,0.,12.0,0.,12.0
1981-08-24 16:17:16.140 ,3,0,0.,12.0,0.,12.0,0.,12.0,0.,12.0
1981-08-24 16:17:28.140 ,3,0,0.,12.0,0.,12.0,0.,12.0,0.,12.0